LNI878 WAPP-WASS

Flight info

Callsign LNI878
Flight time 0h 47m
Altitude 33000
Route PUGUV DCT OPIMA DCT IDVOR DCT GOVSI DCT VIDIS DCT KAKPI DCT FALAM DCT 02S130E/N0462F320 DCT 01S130E DCT D268Y DCT WMLIN DCT SS401 DCT SS402 DCT SS604
Aircraft B738/M-SDE2E3FGHIRWXY/LB1

Departure

Time 2026-04-15 12:51
Airport Pattimura International Airport (WAPP)

Arrival

Time 2026-04-15 13:38
Airport Domine Eduard Osok Airport (WASS)
Time Latitude Longitude Altitude Speed Heading
2026-04-15 12:01 -3.70631 128.08853 89 ft 0 kts
2026-04-15 12:40 -3.70638 128.08853 87 ft 2 kts
2026-04-15 12:40 -3.70653 128.08853 86 ft 2 kts 360°
2026-04-15 12:41 -3.70663 128.08853 86 ft 2 kts 359°
2026-04-15 12:41 -3.70677 128.08856 85 ft 2 kts 328°
2026-04-15 12:41 -3.70689 128.08865 85 ft 2 kts 307°
2026-04-15 12:41 -3.70696 128.08879 84 ft 2 kts 285°
2026-04-15 12:42 -3.70698 128.08888 84 ft 1 kts 271°
2026-04-15 12:42 -3.70698 128.08894 84 ft 0 kts 270°
2026-04-15 12:45 -3.70698 128.08885 84 ft 2 kts 270°
2026-04-15 12:45 -3.70698 128.08867 84 ft 3 kts 270°
2026-04-15 12:46 -3.70698 128.08836 84 ft 4 kts 270°
2026-04-15 12:46 -3.70701 128.08789 84 ft 8 kts 250°
2026-04-15 12:46 -3.70760 128.08765 82 ft 12 kts 182°
2026-04-15 12:46 -3.70863 128.08766 78 ft 16 kts 179°
2026-04-15 12:47 -3.70985 128.08766 74 ft 15 kts 174°
2026-04-15 12:47 -3.71050 128.08817 71 ft 11 kts 135°
2026-04-15 12:47 -3.71107 128.08859 69 ft 9 kts 186°
2026-04-15 12:47 -3.71167 128.08824 67 ft 10 kts 222°
2026-04-15 12:48 -3.71226 128.08766 66 ft 13 kts 225°
2026-04-15 12:48 -3.71300 128.08694 62 ft 16 kts 226°
2026-04-15 12:48 -3.71394 128.08603 58 ft 20 kts 225°
2026-04-15 12:48 -3.71499 128.08496 54 ft 21 kts 226°
2026-04-15 12:49 -3.71610 128.08385 50 ft 23 kts 224°
2026-04-15 12:49 -3.71729 128.08266 45 ft 23 kts 227°
2026-04-15 12:49 -3.71773 128.08189 43 ft 5 kts 206°
2026-04-15 12:49 -3.71783 128.08206 43 ft 2 kts 70°
2026-04-15 12:50 -3.71778 128.08214 43 ft 0 kts 50°
2026-04-15 12:50 -3.71775 128.08217 43 ft 4 kts 50°
2026-04-15 12:50 -3.71614 128.08382 50 ft 69 kts 46°
2026-04-15 12:50 -3.71103 128.08891 69 ft 135 kts 46°
2026-04-15 12:51 -3.70311 128.09668 163 ft 179 kts 44°
2026-04-15 12:51 -3.69397 128.10541 819 ft 185 kts 50°
2026-04-15 12:51 -3.68629 128.11548 1616 ft 184 kts 63°
2026-04-15 12:51 -3.68129 128.12711 2323 ft 187 kts 78°
2026-04-15 12:52 -3.68035 128.14038 2868 ft 200 kts 98°
2026-04-15 12:52 -3.68272 128.15468 3423 ft 217 kts 97°
2026-04-15 12:52 -3.68239 128.17018 4117 ft 231 kts 77°
2026-04-15 12:52 -3.67576 128.18486 4971 ft 236 kts 56°
2026-04-15 12:53 -3.66530 128.19774 5745 ft 243 kts 50°
2026-04-15 12:53 -3.65433 128.21127 6314 ft 260 kts 52°
2026-04-15 12:53 -3.64298 128.22609 6917 ft 274 kts 53°
2026-04-15 12:53 -3.63132 128.24213 7472 ft 291 kts 57°
2026-04-15 12:54 -3.62091 128.25960 8257 ft 297 kts 60°
2026-04-15 12:54 -3.61077 128.27794 8994 ft 305 kts 61°
2026-04-15 12:54 -3.60073 128.29640 9814 ft 308 kts 61°
2026-04-15 12:54 -3.59030 128.31546 10518 ft 317 kts 60°
2026-04-15 12:55 -3.57861 128.33485 11027 ft 331 kts 53°
2026-04-15 12:55 -3.56313 128.35239 11481 ft 345 kts 43°
2026-04-15 12:55 -3.54467 128.36861 11936 ft 360 kts 39°
2026-04-15 12:55 -3.52468 128.38484 12314 ft 376 kts 38°
2026-04-15 12:56 -3.50413 128.40153 12996 ft 381 kts 39°
2026-04-15 12:56 -3.48350 128.41869 13708 ft 385 kts 39°
2026-04-15 12:56 -3.46316 128.43599 14428 ft 387 kts 40°
2026-04-15 12:56 -3.44255 128.45378 15171 ft 389 kts 41°
2026-04-15 12:57 -3.42206 128.47159 15801 ft 393 kts 41°
2026-04-15 12:57 -3.40139 128.48959 16477 ft 395 kts 42°
2026-04-15 12:57 -3.38074 128.50757 17156 ft 396 kts 42°
2026-04-15 12:57 -3.35982 128.52576 17760 ft 399 kts 42°
2026-04-15 12:58 -3.33879 128.54405 18336 ft 403 kts 41°
2026-04-15 12:58 -3.31735 128.56268 18911 ft 406 kts 41°
2026-04-15 12:58 -3.29621 128.58116 19496 ft 408 kts 43°
2026-04-15 12:58 -3.27559 128.60071 20065 ft 411 kts 45°
2026-04-15 12:59 -3.23541 128.64243 21168 ft 416 kts 46°
2026-04-15 12:59 -3.21547 128.66360 21669 ft 420 kts 46°
2026-04-15 12:59 -3.19543 128.68484 22159 ft 423 kts 46°
2026-04-15 13:00 -3.17485 128.70651 22641 ft 427 kts 46°
2026-04-15 13:00 -3.15426 128.72807 23102 ft 431 kts 46°
2026-04-15 13:00 -3.13350 128.74971 23520 ft 435 kts 45°
2026-04-15 13:00 -3.11221 128.77182 23985 ft 438 kts 45°
2026-04-15 13:01 -3.09109 128.79370 24413 ft 442 kts 45°
2026-04-15 13:01 -3.06966 128.81587 24866 ft 445 kts 45°
2026-04-15 13:01 -3.04792 128.83835 25321 ft 448 kts 45°
2026-04-15 13:01 -3.02614 128.86084 25787 ft 450 kts 45°
2026-04-15 13:02 -3.00423 128.88347 26209 ft 454 kts 45°
2026-04-15 13:02 -2.98206 128.90636 26604 ft 457 kts 45°
2026-04-15 13:02 -2.95973 128.92941 27046 ft 459 kts 45°
2026-04-15 13:02 -2.93758 128.95229 27436 ft 463 kts 45°
2026-04-15 13:03 -2.91484 128.97577 27814 ft 466 kts 46°
2026-04-15 13:03 -2.89240 128.99893 28165 ft 470 kts 46°
2026-04-15 13:03 -2.86934 129.02275 28554 ft 472 kts 45°
2026-04-15 13:03 -2.84661 129.04622 29039 ft 473 kts 46°
2026-04-15 13:04 -2.82386 129.06972 29690 ft 469 kts 46°
2026-04-15 13:04 -2.80090 129.09345 30345 ft 465 kts 46°
2026-04-15 13:04 -2.77861 129.11646 30868 ft 464 kts 46°
2026-04-15 13:04 -2.75600 129.13980 31331 ft 464 kts 46°
2026-04-15 13:05 -2.73356 129.16296 31743 ft 465 kts 46°
2026-04-15 13:05 -2.71085 129.18640 31908 ft 471 kts 46°
2026-04-15 13:05 -2.66561 129.23309 31898 ft 463 kts 46°
2026-04-15 13:06 -2.62055 129.27960 32199 ft 468 kts 46°
2026-04-15 13:06 -2.59791 129.30298 32665 ft 466 kts 46°
2026-04-15 13:06 -2.57522 129.32638 32898 ft 468 kts 46°
2026-04-15 13:07 -2.53013 129.37291 32894 ft 460 kts 45°
2026-04-15 13:07 -2.48531 129.41916 32893 ft 461 kts 46°
2026-04-15 13:08 -2.44152 129.46585 32894 ft 461 kts 47°
2026-04-15 13:08 -2.39806 129.51361 32891 ft 461 kts 47°
2026-04-15 13:09 -2.35504 129.56107 32892 ft 461 kts 47°
2026-04-15 13:09 -2.31167 129.60875 32890 ft 462 kts 47°
2026-04-15 13:10 -2.26847 129.65610 32887 ft 461 kts 47°
2026-04-15 13:10 -2.22507 129.70355 32890 ft 461 kts 47°
2026-04-15 13:11 -2.18175 129.75089 32887 ft 460 kts 47°
2026-04-15 13:11 -2.13821 129.79843 32885 ft 461 kts 47°
2026-04-15 13:12 -2.09495 129.84569 32885 ft 460 kts 47°
2026-04-15 13:12 -2.05185 129.89278 32888 ft 461 kts 47°
2026-04-15 13:13 -2.00845 129.94014 32895 ft 460 kts 47°
2026-04-15 13:13 -1.96517 129.98738 32894 ft 461 kts 47°
2026-04-15 13:14 -1.92160 130.03491 32894 ft 463 kts 47°
2026-04-15 13:14 -1.87810 130.08241 32889 ft 460 kts 47°
2026-04-15 13:15 -1.83497 130.12947 32888 ft 460 kts 47°
2026-04-15 13:15 -1.79180 130.17734 32889 ft 462 kts 49°
2026-04-15 13:16 -1.75105 130.22714 32894 ft 463 kts 51°
2026-04-15 13:16 -1.71129 130.27745 32724 ft 463 kts 51°
2026-04-15 13:17 -1.69121 130.30286 32396 ft 465 kts 51°
2026-04-15 13:17 -1.67110 130.32835 31667 ft 466 kts 52°
2026-04-15 13:17 -1.65122 130.35387 31159 ft 461 kts 52°
2026-04-15 13:17 -1.63148 130.37900 30581 ft 458 kts 51°
2026-04-15 13:18 -1.61168 130.40378 30015 ft 455 kts 51°
2026-04-15 13:18 -1.59178 130.42839 29406 ft 453 kts 51°
2026-04-15 13:18 -1.57200 130.45273 28829 ft 450 kts 51°
2026-04-15 13:18 -1.55243 130.47678 28253 ft 448 kts 51°
2026-04-15 13:19 -1.53258 130.50117 27685 ft 446 kts 51°
2026-04-15 13:19 -1.51328 130.52493 27095 ft 444 kts 51°
2026-04-15 13:19 -1.49378 130.54900 26512 ft 442 kts 51°
2026-04-15 13:19 -1.47451 130.57280 25929 ft 441 kts 51°
2026-04-15 13:20 -1.45511 130.59682 25345 ft 438 kts 51°
2026-04-15 13:20 -1.43613 130.62032 24767 ft 437 kts 51°
2026-04-15 13:20 -1.41705 130.64395 24177 ft 435 kts 51°
2026-04-15 13:20 -1.39821 130.66730 23600 ft 433 kts 51°
2026-04-15 13:21 -1.37926 130.69078 23030 ft 430 kts 51°
2026-04-15 13:21 -1.36045 130.71410 22453 ft 429 kts 51°
2026-04-15 13:21 -1.34195 130.73703 21872 ft 427 kts 51°
2026-04-15 13:21 -1.32317 130.76028 21292 ft 425 kts 51°
2026-04-15 13:22 -1.30480 130.78304 20739 ft 422 kts 51°
2026-04-15 13:22 -1.28623 130.80605 20153 ft 421 kts 51°
2026-04-15 13:22 -1.26782 130.82886 19587 ft 420 kts 51°
2026-04-15 13:22 -1.24964 130.85138 19007 ft 420 kts 51°
2026-04-15 13:23 -1.23121 130.87422 18448 ft 419 kts 51°
2026-04-15 13:23 -1.21303 130.89677 17867 ft 418 kts 51°
2026-04-15 13:23 -1.19462 130.91962 17278 ft 417 kts 51°
2026-04-15 13:23 -1.17661 130.94196 16715 ft 417 kts 51°
2026-04-15 13:24 -1.15842 130.96452 16146 ft 416 kts 51°
2026-04-15 13:24 -1.14008 130.98727 15530 ft 416 kts 51°
2026-04-15 13:24 -1.12222 131.00941 14943 ft 403 kts 50°
2026-04-15 13:24 -1.10507 131.03069 14415 ft 390 kts 50°
2026-04-15 13:25 -1.08821 131.05159 13857 ft 380 kts 50°
2026-04-15 13:25 -1.07179 131.07194 13319 ft 370 kts 50°
2026-04-15 13:25 -1.05583 131.09174 12778 ft 362 kts 50°
2026-04-15 13:25 -1.04025 131.11104 12334 ft 352 kts 49°
2026-04-15 13:26 -1.02496 131.13001 11858 ft 344 kts 49°
2026-04-15 13:26 -1.00999 131.14856 11374 ft 348 kts 49°
2026-04-15 13:26 -0.99465 131.16757 10857 ft 348 kts 49°
2026-04-15 13:26 -0.97976 131.18602 10416 ft 336 kts 49°
2026-04-15 13:27 -0.96540 131.20386 10232 ft 316 kts 49°
2026-04-15 13:27 -0.95195 131.22057 10123 ft 306 kts 49°
2026-04-15 13:27 -0.93844 131.23730 9761 ft 308 kts 49°
2026-04-15 13:27 -0.92512 131.25378 9342 ft 301 kts 49°
2026-04-15 13:28 -0.91212 131.26988 8968 ft 293 kts 49°
2026-04-15 13:28 -0.90028 131.28661 8771 ft 297 kts 60°
2026-04-15 13:28 -0.89311 131.30608 8477 ft 303 kts 81°
2026-04-15 13:28 -0.89155 131.32678 8070 ft 296 kts 91°
2026-04-15 13:29 -0.89184 131.34705 7692 ft 288 kts 92°
2026-04-15 13:29 -0.89209 131.36690 7343 ft 282 kts 91°
2026-04-15 13:29 -0.89185 131.38666 6938 ft 284 kts 89°
2026-04-15 13:29 -0.89123 131.40614 6569 ft 285 kts 89°
2026-04-15 13:30 -0.89041 131.42601 6220 ft 283 kts 88°
2026-04-15 13:30 -0.88953 131.44557 5935 ft 277 kts 88°
2026-04-15 13:30 -0.88867 131.46434 5648 ft 268 kts 89°
2026-04-15 13:30 -0.88787 131.48251 5495 ft 252 kts 89°
2026-04-15 13:31 -0.88839 131.49945 5422 ft 237 kts 102°
2026-04-15 13:31 -0.89418 131.51395 5345 ft 213 kts 133°
2026-04-15 13:31 -0.90491 131.52300 5143 ft 196 kts 155°
2026-04-15 13:31 -0.91729 131.52824 4895 ft 186 kts 168°
2026-04-15 13:32 -0.92961 131.52953 4700 ft 175 kts 191°
2026-04-15 13:32 -0.94155 131.52615 4526 ft 178 kts 206°
2026-04-15 13:32 -0.95159 131.52033 4335 ft 179 kts 220°
2026-04-15 13:32 -0.95964 131.51082 4148 ft 180 kts 241°
2026-04-15 13:33 -0.96428 131.49922 3954 ft 180 kts 255°
2026-04-15 13:33 -0.96535 131.48679 3786 ft 183 kts 275°
2026-04-15 13:33 -0.96191 131.47440 3589 ft 187 kts 293°
2026-04-15 13:33 -0.95479 131.46362 3430 ft 187 kts 311°
2026-04-15 13:34 -0.94440 131.45583 3288 ft 191 kts 337°
2026-04-15 13:34 -0.93138 131.45235 3085 ft 192 kts 342°
2026-04-15 13:34 -0.91903 131.44736 2920 ft 189 kts 329°
2026-04-15 13:34 -0.90897 131.43909 2674 ft 188 kts 299°
2026-04-15 13:35 -0.90409 131.42720 2431 ft 181 kts 281°
2026-04-15 13:35 -0.90206 131.41511 2199 ft 167 kts 272°
2026-04-15 13:35 -0.90135 131.40384 2072 ft 162 kts 269°
2026-04-15 13:35 -0.90094 131.39249 1861 ft 163 kts 270°
2026-04-15 13:36 -0.90018 131.38121 1612 ft 161 kts 272°
2026-04-15 13:36 -0.89938 131.37001 1458 ft 159 kts 271°
2026-04-15 13:36 -0.89869 131.35893 1354 ft 164 kts 271°
2026-04-15 13:36 -0.89796 131.34767 999 ft 159 kts 272°
2026-04-15 13:37 -0.89725 131.33673 740 ft 155 kts 272°
2026-04-15 13:37 -0.89654 131.32594 559 ft 156 kts 272°
2026-04-15 13:37 -0.89571 131.31516 364 ft 155 kts 273°
2026-04-15 13:37 -0.89512 131.30434 145 ft 157 kts 273°
2026-04-15 13:38 -0.89447 131.29369 26 ft 148 kts 276°
2026-04-15 13:38 -0.89392 131.28569 24 ft 81 kts 273°
2026-04-15 13:38 -0.89365 131.28154 25 ft 38 kts 274°
2026-04-15 13:38 -0.89342 131.27966 24 ft 18 kts 283°
2026-04-15 13:39 -0.89341 131.27940 24 ft 0 kts 219°
2026-04-15 13:39 -0.89350 131.27949 24 ft 5 kts 111°
2026-04-15 13:39 -0.89356 131.28017 25 ft 13 kts 93°
2026-04-15 13:39 -0.89365 131.28133 24 ft 17 kts 95°
2026-04-15 13:40 -0.89374 131.28250 24 ft 16 kts 94°
2026-04-15 13:40 -0.89382 131.28363 24 ft 15 kts 92°
2026-04-15 13:40 -0.89387 131.28471 24 ft 15 kts 92°
2026-04-15 13:40 -0.89393 131.28578 24 ft 15 kts 93°
2026-04-15 13:41 -0.89399 131.28680 24 ft 14 kts 93°
2026-04-15 13:41 -0.89404 131.28770 24 ft 9 kts 93°
2026-04-15 13:41 -0.89407 131.28834 24 ft 9 kts 94°
2026-04-15 13:41 -0.89405 131.28889 24 ft 6 kts 52°
2026-04-15 13:42 -0.89363 131.28905 24 ft 6 kts
2026-04-15 13:42 -0.89318 131.28909 23 ft 6 kts
2026-04-15 13:42 -0.89276 131.28912 24 ft 5 kts
2026-04-15 13:42 -0.89239 131.28915 24 ft 4 kts 20°
2026-04-15 13:43 -0.89222 131.28940 24 ft 4 kts 79°
2026-04-15 13:43 -0.89221 131.28967 24 ft 4 kts 92°
2026-04-15 13:43 -0.89223 131.28998 24 ft 4 kts 94°
2026-04-15 13:43 -0.89223 131.29024 24 ft 2 kts 68°
2026-04-15 13:44 -0.89209 131.29031 24 ft 2 kts 21°
2026-04-15 13:44 -0.89195 131.29034 24 ft 1 kts
2026-04-15 13:44 -0.89190 131.29034 24 ft 0 kts
2026-04-15 13:44 -0.89188 131.29034 24 ft 1 kts
2026-04-15 13:45 -0.89184 131.29036 24 ft 0 kts
2026-04-15 13:45 -0.89177 131.29036 24 ft 0 kts
2026-04-15 13:45 -0.89175 131.29036 24 ft 0 kts